Regional Weather Roundup
Issued by NWS Cleveland, OH

Home | Current Version | Previous Version | Text Only | Print | Product List | Glossary Off
Versions: 1 2 3 4 5 6 7 8 9 10 11 12 13 14 15 16 17 18 19 20 21 22 23 24 25 26 27 28 29 30 31 32 33 34 35 36 37 38 39 40 41 42 43 44 45 46 47 48 49 50

000
ASUS41 KCLE 230300
RWRCLE
OHIO REGIONAL WEATHER ROUNDUP
NATIONAL WEATHER SERVICE WILMINGTON, OH
1100 PM EDT MON SEP 22 2014

NOTE: "FAIR" INDICATES FEW OR NO CLOUDS BELOW 12,000 FEET WITH NO
SIGNIFICANT WEATHER AND/OR OBSTRUCTIONS TO VISIBILITY.

OHZ001>008-015>018-024>027-034-035-043-044-230400-
   NORTHWEST OHIO

CITY           SKY/WX    TMP DP  RH WIND       PRES   REMARKS
DEFIANCE       CLEAR    N/A N/A N/A CALM      30.28R
FINDLAY        CLEAR     50  43  77 CALM      30.26R
TOLEDO EXPRESS CLEAR     47  45  93 CALM      30.26R
TOLEDO METCALF CLEAR     50  42  74 CALM      30.27R
LIMA           CLEAR     48  43  82 CALM      30.27R
$$

OHZ009>014-019>023-028>033-038-089-230400-
   NORTHEAST OHIO

CITY           SKY/WX    TMP DP  RH WIND       PRES   REMARKS
CLE-HOPKINS    CLEAR     47  42  83 CALM      30.29R
CLE-LAKEFRONT  CLEAR     52  44  74 S8        30.26R
CUY CO. ARPT   CLEAR     46  45  93 CALM      30.27R
LORAIN-ELYRIA  CLEAR     49  43  80 CALM      30.28R
ASHTABULA      CLEAR     44  41  89 S3        30.27R
AKRON-CANTON   CLEAR     48  41  76 CALM      30.27S
WOOSTER        NOT AVBL
MANSFIELD      CLEAR     48  42  80 CALM      30.28R
YOUNGSTOWN     PTCLDY    45  42  89 CALM      30.27R
$$

OHZ042-051>053-060>062-070>072-077>081-230400-
  SOUTHWEST OHIO

CITY           SKY/WX    TMP DP  RH WIND       PRES   REMARKS
CINC-COVINGTON CLEAR     53  42  66 N3        30.27R
CINC-LUNKEN    CLEAR     49  46  90 CALM      30.28R
HAMILTON       CLEAR     45  43  93 CALM      30.28R
DAYTON         NOT AVBL
WRIGHT-PAT AFB CLEAR     51  44  76 W1        30.28R
DAYTON GENERAL CLEAR     50  43  77 NE5       30.27R
WILMINGTON     CLEAR     49  41  74 NE5       30.27R
$$

OHZ036-037-039>041-045>050-054>059-063>069-073>076-082>088-230400-
  CENTRAL AND SOUTHEAST OHIO

CITY           SKY/WX    TMP DP  RH WIND       PRES   REMARKS
COLUMBUS       CLEAR     53  42  66 CALM      30.26S
OSU AIRPORT    CLEAR     51  41  68 CALM      30.27R
BOLTON FIELD   NOT AVBL
RICKENBACK AFB NOT AVBL
NEWARK         CLEAR     44  41  89 CALM      30.27R
MARION         CLEAR     47  40  76 CALM      30.27R
LANCASTER      CLEAR     44  40  85 CALM      30.28R
ZANESVILLE     CLEAR     47  42  83 CALM      30.28R
NEW PHILLY     CLEAR     43  41  93 CALM      30.29R
$$



USA.gov is the U.S. government's official web portal to all federal, state and local government web resources and services.